This is the latest recevied weather packets stored in our database for station/object N8TWM-13. If no packets are shown the sender has not sent any weather packets the latest 10 day(s).
| Time | Temp. | Humidity | Pressure | Rain* | Wind** | Luminosity | Snow |
|---|---|---|---|---|---|---|---|
| 1778112249 | 10.56° C | 60% | 1013 hPa | 0 mm | - | 9 W/m² | - |
| 1778111945 | 10.56° C | 59% | 1013.3 hPa | 0 mm | - | 12 W/m² | - |
| 1778111643 | 10.56° C | 59% | 1013.2 hPa | 0 mm | - | 15 W/m² | - |
| 1778111338 | 10.56° C | 60% | 1013.3 hPa | 0 mm | - | 18 W/m² | - |
| 1778111036 | 10.56° C | 61% | 1013.2 hPa | 0 mm | - | 20 W/m² | - |
| 1778110734 | 10.56° C | 60% | 1013.4 hPa | 0 mm | - | 28 W/m² | - |
| 1778110430 | 10.56° C | 60% | 1013.2 hPa | 0 mm | - | 27 W/m² | - |
| 1778110127 | 11.11° C | 60% | 1013.2 hPa | 0 mm | - | 25 W/m² | - |
| 1778109823 | 11.11° C | 61% | 1013.3 hPa | 0 mm | - | 28 W/m² | - |
| 1778109519 | 11.11° C | 60% | 1013.4 hPa | 0 mm | - | 35 W/m² | - |
| 1778109217 | 11.11° C | 59% | 1013.5 hPa | 0 mm | - | 33 W/m² | - |
| 1778108914 | 11.11° C | 60% | 1013.3 hPa | 0 mm | - | 34 W/m² | - |
| 1778108611 | 11.11° C | 59% | 1013.2 hPa | 0 mm | - | 35 W/m² | - |
| 1778108307 | 11.11° C | 59% | 1013.2 hPa | 0 mm | - | 39 W/m² | - |
| 1778108004 | 11.11° C | 59% | 1013.1 hPa | 0 mm | - | 44 W/m² | - |
| 1778107701 | 11.67° C | 59% | 1013.3 hPa | 0 mm | - | 40 W/m² | - |
| 1778107398 | 11.67° C | 58% | 1013 hPa | 0 mm | - | 56 W/m² | - |
| 1778107095 | 11.67° C | 56% | 1013.1 hPa | 0 mm | - | 68 W/m² | - |
| 1778106790 | 11.11° C | 57% | 1013 hPa | 0 mm | - | 77 W/m² | - |
| 1778106487 | 11.11° C | 56% | 1013.2 hPa | 0 mm | - | 92 W/m² | - |
| 1778106183 | 11.11° C | 56% | 1013.2 hPa | 0 mm | - | 75 W/m² | - |
| 1778105881 | 11.67° C | 56% | 1013.1 hPa | 0 mm | - | 55 W/m² | - |
| 1778105578 | 11.67° C | 57% | 1013.3 hPa | 0 mm | - | 55 W/m² | - |
| 1778105275 | 11.67° C | 57% | 1013 hPa | 0 mm | - | 69 W/m² | - |
| 1778104970 | 11.67° C | 56% | 1012.9 hPa | 0 mm | - | 88 W/m² | - |
* Rain latest hour (hover to see other rain measurements)
** Current wind speed in m/s (hover to see current wind gust speed)